User: anonymous   Login
Location: Vancouver
(49.2500°N, 123.1330°W)
Time: 17:33:03
(UTC-07:00)
Language:

CZ-2C R/B - Orbit

View from above orbital plane
View from above orbital plane
View from above satellite
View from above satellite

Ground track
Ground track

The orbit data is extracted from the following two-line orbital elements,

1 28480U 04046B   16177.92106141 +.00000054 +00000-0 +36187-4 0  9990
2 28480 098.1833 291.2488 0141840 195.5011 274.4071 14.25597462603458
Epoch (UTC): 25 June 2016 22:06:19
Eccentricity: 0.0141840
inclination: 98.1833°
perigee height: 704 km
apogee height: 908 km
right ascension of ascending node: 291.2488°
argument of perigee: 195.5011°
revolutions per day: 14.25597462
mean anomaly at epoch: 274.4071°
orbit number at epoch: 60345

The dashed part of the orbit path shows where the satellite is in the earth's shadow,  

DLR